Location: Gökben Yaylas?
(36.8988°N, 29.6291°E)
Time: 22:13:03
(UTC+00:00)

Tsikada Rocket - Pass Details

Date: 15 May 2026
Orbit: 956 x 1009 km, 82.9° (Epoch: 10 June)

Event Time Altitude Azimuth Distance (km) Brightness Sun altitude
Rises 18:55:57 0° 350° (N) 3,645 7.9 -19.5°
Reaches altitude 10° 18:58:28 10° 348° (NNW) 2,693 7.1 -19.9°
Maximum altitude 19:04:33 68° 267° (W) 1,029 4.2 -20.8°
Enters shadow 19:08:37 22° 189° (S) 1,957 5.2 -21.3°
